Regional Weather Roundup
Issued by NWS

Home | Current Version | Previous Version | Text Only | Print | Product List | Glossary On
Versions: 1 2 3 4 5 6 7 8 9 10 11 12 13 14 15 16 17 18 19 20 21 22 23 24 25 26 27 28 29 30 31 32 33 34 35 36 37 38 39 40 41 42 43 44 45 46 47 48 49 50
000
ASUS43 KDTX 010510
RWRMI
MICHIGAN HOURLY REGIONAL WEATHER ROUNDUP
NATIONAL WEATHER SERVICE DETROIT/PONTIAC MI
100 AM EDT TUE SEP 01 2015

NOTE: "FAIR" INDICATES FEW OR NO CLOUDS BELOW 12,000 FEET WITH NO
SIGNIFICANT WEATHER AND/OR OBSTRUCTION TO VISIBILITY.

MIZ047>049-052>055-059>063-066>070-074>076-081>083-010600-
SOUTHEAST LOWER MICHIGAN

CITY           SKY/WX    TMP DP  RH WIND       PRES   REMARKS
ADRIAN         CLEAR     65  63  93 CALM      30.10R FOG
ALMA           FOG       60  60 100 CALM      30.07R VSB 1/2
ANN ARBOR      FOG       62  62 100 W3        30.08S VSB 1/2
BAD AXE        FOG       61  61  99 CALM      30.06F VSB 1
CARO           FOG       60  60 100 CALM      30.06S VSB 3/4
DETROIT CITY   CLEAR     71  64  78 CALM      30.07S
DETROIT        PTCLDY    72  70  93 CALM      30.08R FOG
FLINT          MOCLDY    64  61  90 CALM      30.07S FOG
GROSSE ILE     FOG       72  70  94 CALM      30.06S VSB<1/4
HILLSDALE      FOG       65  65 100 CALM      30.11S VSB 1
HOWELL           N/A     65  64  96 CALM      30.08S FOG

CITY           SKY/WX    TMP DP  RH WIND       PRES   REMARKS
JACKSON        CLEAR     65  63  93 SW3       30.09S FOG
LAMBERTVILLE   CLEAR     67  65  91 CALM      30.09R FOG
LANSING        CLEAR     66  64  93 CALM      30.08S
LAPEER         FOG       60  60 100 CALM      30.08R VSB 1/2
MASON            N/A     64  62  91 S3        30.08S FOG
MONROE         FOG       65  64  97 CALM      30.07S VSB 1/4
MT. CLEMENS    CLEAR     66  64  93 CALM      30.06R
PONTIAC        CLEAR     66  64  93 CALM      30.08R FOG
PORT HOPE        N/A     68  65  90 SW7       30.03S
PORT HURON     FOG       59  59 100 CALM      30.07S VSB 1/4
TRI CITIES     CLEAR     68  66  93 SW3       30.06S FOG
MIDLAND        FOG       63  62  97 CALM      30.05S VSB 1/2
TROY           CLEAR     71  66  84 CALM      30.10R
SAGINAW HB       N/A     63  63 100 SW3       30.05S FOG
$$
MIZ043>046-050>051-056>058-064>065-071>073-077>080-010600-
SOUTHWEST LOWER MICHIGAN

CITY           SKY/WX    TMP DP  RH WIND       PRES   REMARKS
BATTLE CREEK   CLEAR     67  65  93 S3        30.09S
BENTON HARBOR  CLEAR     68  66  93 CALM      30.06S FOG
BIG RAPIDS     FOG       59  59  97 CALM      30.06S VSB 1/2
COLDWATER      PTCLDY    65  65 100 CALM      30.09F FOG
FREMONT        FOG       61  61 100 CALM      30.05S VSB 1/4
HOLLAND        CLEAR     66  64  93 CALM      30.07S FOG
GRAND RAPIDS   CLEAR     66  64  93 SE3       30.07S FOG
IONIA          FAIR      66  65  95 SW5       30.07R FOG
KALAMAZOO      CLEAR     69  66  90 S3        30.09S
LUDINGTON      FOG       62  60  93 CALM      30.05R VSB 1
MARSHALL       FOG       63  62  97 CALM      30.09S VSB 3/4
MOUNT PLEASANT FOG       63  62  94 CALM      30.05S VSB 1/4
MUSKEGON       CLEAR     65  61  87 CALM      30.06R FOG
SOUTH HAVEN    CLEAR     65  64  96 CALM      30.06S FOG
$$
MIZ016>042-010600-
NORTHERN LOWER MICHIGAN

CITY           SKY/WX    TMP DP  RH WIND       PRES   REMARKS
ALPENA         MOCLDY    60  59  96 CALM      30.02S FOG
BEAVER ISLAND  CLEAR     67  65  94 SW8       30.00S
BELLAIRE       CLEAR     62  61  96 CALM      30.02F
CADILLAC       CLEAR     62  61  97 SW5       30.06S FOG
CHARLEVOIX     CLEAR     68  65  93 SW3       30.04S
FRANKFORT      CLEAR     68  65  89 SW3       30.03S
GAYLORD        CLEAR     66  65  96 W6        30.05S
GRAYLING         N/A     58  57  98 CALM      30.06S FOG
HARBOR SPRINGS CLEAR     63  62  98 CALM      30.01F FOG
HOUGHTON LAKE  FOG       60  60 100 CALM      30.06S VSB 1/4
MANISTEE       CLEAR     61  55  82 CALM      30.04S
OSCODA         CLEAR     67  65  96 SW7       30.02S
PELLSTON       FOG       58  58 100 CALM      30.02S VSB 1
ROGERS CITY    CLEAR     64  63  94 SW3       30.02S FOG
TRAVERSE CITY  CLEAR     68  64  87 CALM      30.02S
$$
MIZ007>008-015-010600-
EASTERN UPPER MICHIGAN

CITY           SKY/WX    TMP DP  RH WIND       PRES   REMARKS
KINROSS        PTCLDY    63  63 100 S7        30.00F
MACKINAC ISLAN CLEAR     65  64  95 S7        30.01S
NEWBERRY       CLOUDY    66  65  98 SW10      29.99R FOG
S. S. MARIE    FOG       64  63  96 SE6       29.99F VSB 1
MUNISING         N/A     69  65  86 S7        29.95R
$$
MIZ004>006-011>014-085-010600-
CENTRAL UPPER MICHIGAN

CITY           SKY/WX    TMP DP  RH WIND       PRES   REMARKS
MANISTIQUE     FOG       63  62  97 S10       29.98F VSB 1/4
ESCANABA       CLEAR     64  63  94 S5        29.97S
MENOMINEE      CLEAR     66  63  88 SW5       29.98S
SAWYER-GWINN   CLEAR     68  65  89 SW7       29.97S
$$
MIZ001>003-009>011-084-010600-
WESTERN UPPER MICHIGAN

CITY           SKY/WX    TMP DP  RH WIND       PRES   REMARKS
IRON MOUNTAIN  CLEAR     66  64  93 SE5       29.97S FOG
HOUGHTON       CLEAR     68  63  84 CALM      29.90F
IRONWOOD       CLEAR     72  68  88 S12       29.90S
$$

ABBREVIATIONS USED IN REMARKS
   TC - TEMPERATURE IN CELSIUS
  WCI - WIND CHILL INDEX
   HX - HEAT INDEX
  VSB - VISIBILITY



USA.gov is the U.S. government's official web portal to all federal, state and local government web resources and services.